Tracking 30995 objects as of 5-Jul-2025
HD Live streaming from Space Station
objects crossing your sky now

DELTA 1 DEB

Track DELTA 1 DEB now!
10-day predictions


NORAD ID: 21326
Int'l Code: 1975-052AU
Perigee: 1,087.1 km
Apogee: 1,132.8 km
Inclination: 99.9 °
Period: 107.3 minutes
Semi major axis: 7480 km
RCS: 0.0568 m2 (small)
Launch date: June 12, 1975
Source: United States (US)
Launch site: AIR FORCE WESTERN TEST RANGE (AFWTR)

Note: This is SATELLITE DEBRIS
Your satellite tracking list
NOAA 17 DEB
Track 1 satellite(s)




NASA's NSSDC Master Catalog

Two Line Element Set (TLE):
1 21326U 75052AU  25185.96466255  .00000117  00000-0  28651-3 0  9991
2 21326  99.8648  78.2428 0030520 177.2695 205.1023 13.41736470669413
Source of the keplerian elements: AFSPC